1507579201.13,48347,11.38,73156.5,-10.57,-11.67,-11.73,0,*6A
1507579202.4,48348,11.38,73158.0,-10.57,-11.73,-11.67,0,*65
1507579203.67,48349,11.38,73162.3,-10.57,-11.67,-11.81,0,*69
1507579204.93,48350,11.38,73164.5,-10.57,-11.81,-11.81,0,*69
1507579206.19,48351,11.38,73160.5,-10.57,-11.81,-11.73,0,*65
1507579207.46,48352,11.38,73170.8,-10.57,-11.67,-11.73,0,*6E
1507579208.72,48353,11.38,73162.5,-10.57,-11.73,-11.73,0,*6A
1507579210.01,48354,11.38,73160.5,-10.59,-11.85,-11.85,0,*63
1507579211.31,48355,11.38,73164.0,-10.59,-11.85,-11.89,0,*6E
1507579212.6,48356,11.38,73162.0,-10.59,-11.89,-11.89,0,*61
1507579213.87,48357,11.38,73156.8,-10.57,-11.85,-11.85,0,*6E
1507579215.16,48358,11.38,73158.5,-10.59,-11.85,-11.85,0,*6F
1507579216.42,48359,11.38,73160.3,-10.57,-11.85,-11.85,0,*60
1507579217.7,48360,11.38,73164.0,-10.57,-11.93,-11.85,0,*6D
1507579218.99,48361,11.38,73164.5,-10.59,-11.89,-11.93,0,*6E
1507579220.26,48362,11.38,73166.5,-10.57,-11.93,-11.85,0,*6F
1507579221.56,48363,11.38,73168.0,-10.59,-11.97,-11.97,0,*67
1507579222.83,48364,11.38,73160.8,-10.57,-11.93,-11.93,0,*6E
1507579224.1,48365,11.38,73152.0,-10.57,-11.85,-11.85,0,*6F
1507579225.37,48366,11.38,73154.5,-10.57,-11.89,-11.85,0,*60
1507579226.64,48367,11.38,73162.0,-10.57,-11.85,-11.93,0,*6A
1507579227.91,48368,11.38,73158.3,-10.59,-11.89,-12.03,0,*6D
1507579229.18,48369,11.38,73160.8,-10.57,-11.93,-11.93,0,*63
1507579230.45,48370,11.38,73172.0,-10.57,-12.07,-11.97,0,*61
1507579231.72,48371,11.38,73174.8,-10.59,-12.03,-11.97,0,*6A
1507579232.98,48372,11.38,73172.5,-10.57,-11.97,-11.97,0,*69
1507579234.27,48373,11.38,73174.5,-10.59,-11.89,-11.97,0,*69
1507579235.55,48374,11.38,73174.8,-10.57,-11.93,-11.93,0,*6F
1507579236.82,48375,11.38,73174.5,-10.59,-12.03,-11.97,0,*6E
1507579238.11,48376,11.38,73170.8,-10.59,-11.97,-12.11,0,*6E
1507579239.38,48377,11.38,73162.8,-10.57,-11.97,-11.97,0,*6C
1507579240.64,48378,11.38,73154.3,-10.57,-11.97,-11.97,0,*63
1507579241.91,48379,11.38,73156.3,-10.57,-11.97,-11.93,0,*66
1507579243.2,48380,11.38,73162.0,-10.59,-11.97,-11.97,0,*6A
1507579244.47,48381,11.38,73164.3,-10.57,-11.97,-12.07,0,*6F
1507579245.74,48382,11.38,73168.5,-10.57,-11.97,-11.97,0,*66
1507579247.03,48383,11.38,73168.0,-10.59,-11.97,-11.97,0,*69
1507579248.3,48384,11.38,73166.8,-10.59,-12.11,-12.03,0,*6D
1507579249.57,48385,11.38,73154.5,-10.59,-11.97,-12.03,0,*61
1507579250.83,48386,11.38,73154.3,-10.57,-11.73,-11.59,0,*6A
1507579252.09,48387,11.38,73164.8,-10.57,-11.81,-11.81,0,*63
1507579253.38,48388,11.38,73164.5,-10.59,-11.85,-11.77,0,*6F
1507579254.68,48389,11.38,73168.8,-10.59,-11.63,-11.63,0,*63
1507579255.96,48390,11.38,73180.3,-10.59,-11.77,-11.77,0,*6B
1507579257.25,48391,11.38,73176.0,-10.59,-11.85,-11.85,0,*6A
1507579258.51,48392,11.38,73170.8,-10.57,-11.81,-11.81,0,*67
1507579259.77,48393,11.38,73168.3,-10.57,-11.81,-11.81,0,*66
1507579261.06,48394,11.38,73174.0,-10.59,-11.89,-11.85,0,*63
1507579262.33,48395,11.38,73170.5,-10.57,-11.81,-11.93,0,*63
1507579263.6,48396,11.38,73172.5,-10.57,-11.85,-11.93,0,*64
1507579264.88,48397,11.38,73174.3,-10.57,-11.93,-11.93,0,*62
1507579266.17,48398,11.38,73168.0,-10.59,-11.97,-11.97,0,*63
1507579267.44,48399,11.38,73168.5,-10.57,-11.85,-11.85,0,*6C
1507579268.73,48400,11.38,73164.0,-10.59,-11.89,-11.97,0,*6A
1507579270.0,48401,11.38,73164.5,-10.57,-11.85,-11.85,0,*6A
1507579271.29,48402,11.38,73162.5,-10.59,-11.77,-11.89,0,*66
1507579272.55,48403,11.38,73162.5,-10.59,-12.03,-11.85,0,*6B
1507579273.84,48404,11.38,73160.8,-10.59,-11.89,-11.97,0,*6E
1507579275.11,48405,11.38,73160.5,-10.57,-11.85,-11.81,0,*6A
1507579276.4,48406,11.38,73160.8,-10.59,-11.89,-11.89,0,*63
1507579277.67,48407,11.38,73160.0,-10.57,-11.81,-11.85,0,*68
1507579278.93,48408,11.38,73158.8,-10.57,-11.81,-11.85,0,*67
1507579280.22,48409,11.38,73164.3,-10.59,-11.77,-11.89,0,*6D
1507579281.52,48410,11.38,73168.8,-10.59,-11.85,-11.93,0,*63
1507579282.81,48411,11.38,73170.0,-10.59,-11.89,-11.97,0,*6A
1507579284.1,48412,11.38,73172.0,-10.59,-11.89,-11.89,0,*66
1507579285.4,48413,11.38,73174.8,-10.59,-11.89,-11.89,0,*67
1507579286.69,48414,11.38,73158.8,-10.59,-11.97,-11.89,0,*6F
1507579287.96,48415,11.38,73152.5,-10.59,-11.97,-12.03,0,*6F
1507579289.24,48416,11.38,73158.3,-10.57,-11.93,-11.93,0,*6C
1507579290.5,48417,11.38,73156.5,-10.59,-12.03,-11.97,0,*6D
1507579291.77,48418,11.38,73166.5,-10.57,-11.97,-11.97,0,*62
1507579293.03,48419,11.38,73166.0,-10.59,-12.03,-11.93,0,*67
1507579294.3,48420,11.38,73156.3,-10.57,-11.85,-11.93,0,*6E
1507579295.6,48421,11.38,73152.3,-10.59,-11.97,-11.89,0,*69
1507579296.89,48422,11.38,73160.3,-10.59,-11.97,-11.97,0,*65
1507579298.18,48423,11.38,73166.5,-10.59,-11.89,-11.97,0,*6B
1507579299.46,48424,11.38,73166.8,-10.57,-11.93,-11.93,0,*6D
1507579300.75,48425,11.38,73166.3,-10.59,-11.89,-11.89,0,*62
1507579302.05,48426,11.38,73164.3,-10.59,-11.97,-11.89,0,*6E
1507579303.33,48427,11.38,73168.5,-10.59,-11.97,-11.97,0,*60
1507579304.6,48428,11.38,73168.5,-10.59,-11.97,-12.03,0,*61
1507579305.9,48429,11.38,73168.8,-10.59,-11.89,-11.89,0,*6E
1507579307.16,48430,11.38,73164.8,-10.57,-11.89,-11.81,0,*60
1507579308.46,48431,11.38,73170.5,-10.59,-11.89,-11.89,0,*67
1507579309.75,48432,11.38,73172.5,-10.59,-11.97,-11.97,0,*64
1507579311.04,48433,11.38,73172.0,-10.59,-11.89,-11.89,0,*65
1507579312.33,48434,11.38,73180.0,-10.59,-11.97,-11.89,0,*6D
1507579313.62,48435,11.38,73172.8,-10.59,-11.89,-11.97,0,*6C
1507579314.92,48436,11.38,73174.5,-10.59,-11.89,-11.97,0,*6F
1507579316.21,48437,11.38,73174.0,-10.59,-11.97,-11.97,0,*61
1507579317.5,48438,11.38,73176.3,-10.59,-11.89,-11.89,0,*6E
1507579318.79,48439,11.38,73182.8,-10.59,-11.89,-11.89,0,*6F
1507579320.09,48440,11.38,73182.0,-10.59,-11.89,-11.97,0,*6E
1507579321.38,48441,11.38,73178.8,-10.59,-11.89,-11.89,0,*60
1507579322.65,48442,11.38,73162.8,-10.59,-11.97,-12.03,0,*6D
1507579323.88,48443,11.38,73166.0,-10.63,-12.03,-12.03,0,*6B
1507579325.16,48444,11.38,73170.5,-10.63,-11.93,-12.03,0,*66
1507579326.45,48445,11.38,73168.5,-10.63,-11.93,-11.93,0,*6D
1507579327.75,48446,11.38,73170.5,-10.59,-11.89,-11.89,0,*67
1507579329.04,48447,11.38,73168.8,-10.59,-11.89,-11.89,0,*66
1507579330.31,48448,11.38,73166.5,-10.57,-11.85,-11.85,0,*67
1507579331.6,48449,11.38,73162.8,-10.59,-11.89,-11.97,0,*67
1507579332.89,48450,11.38,73166.5,-10.63,-11.89,-11.89,0,*69
1507579334.19,48451,11.38,73170.0,-10.59,-11.89,-11.89,0,*61
1507579335.48,48452,11.38,73168.0,-10.59,-11.89,-11.85,0,*6E
1507579336.77,48453,11.38,73164.8,-10.59,-11.97,-11.97,0,*63
1507579338.06,48454,11.38,73156.0,-10.59,-11.89,-11.97,0,*6B
1507579339.35,48455,11.38,73162.8,-10.59,-11.97,-11.89,0,*6A
1507579340.64,48456,11.38,73164.0,-10.63,-11.89,-11.93,0,*64
1507579341.94,48457,11.38,73160.0,-10.63,-11.93,-11.93,0,*6E
1507579343.24,48458,11.38,73160.5,-10.63,-11.93,-11.93,0,*61
1507579344.5,48459,11.38,73160.5,-10.57,-11.85,-11.85,0,*67
1507579345.8,48460,11.38,73158.8,-10.59,-11.85,-11.89,0,*6F
1507579347.09,48461,11.38,73160.8,-10.59,-11.85,-11.85,0,*62
1507579348.38,48462,11.38,73162.5,-10.59,-11.77,-11.89,0,*60
1507579349.68,48463,11.38,73160.5,-10.59,-11.89,-11.89,0,*60
1507579350.97,48464,11.38,73160.8,-10.59,-11.89,-11.97,0,*68
1507579352.2,48465,11.38,73160.0,-10.63,-12.03,-12.03,0,*6F
1507579353.48,48466,11.38,73170.8,-10.63,-11.93,-12.03,0,*66
1507579354.77,48467,11.38,73164.0,-10.59,-11.89,-11.89,0,*64
1507579356.06,48468,11.38,73168.0,-10.59,-11.89,-11.89,0,*6B
1507579357.34,48469,11.38,73164.5,-10.63,-11.81,-11.81,0,*63
1507579358.62,48470,11.38,73170.5,-10.63,-11.81,-11.81,0,*6B
1507579359.9,48471,11.38,73172.8,-10.63,-11.81,-11.81,0,*6A
1507579361.19,48472,11.38,73172.3,-10.59,-11.85,-11.85,0,*60
1507579362.49,48473,11.38,73168.0,-10.59,-11.85,-11.89,0,*6D
1507579363.78,48474,11.38,73168.8,-10.59,-11.77,-11.89,0,*67
1507579365.05,48475,11.38,73174.0,-10.63,-11.93,-12.03,0,*64
1507579366.32,48476,11.38,73170.5,-10.65,-11.89,-11.93,0,*60
1507579367.62,48477,11.38,73170.8,-10.63,-11.93,-11.93,0,*6C
1507579368.91,48478,11.38,73170.3,-10.59,-11.89,-11.89,0,*6A
1507579370.21,48479,11.38,73168.3,-10.63,-11.93,-11.93,0,*62
1507579371.51,48480,11.38,73168.8,-10.63,-11.93,-11.93,0,*64
1507579372.79,48481,11.38,73168.5,-10.63,-11.81,-11.81,0,*65
1507579374.07,48482,11.38,73168.0,-10.63,-11.81,-11.81,0,*66
1507579375.36,48483,11.38,73170.0,-10.63,-11.89,-11.89,0,*67
1507579376.65,48484,11.38,73172.0,-10.63,-11.89,-11.93,0,*6B
1507579377.94,48485,11.38,73172.3,-10.63,-11.89,-11.89,0,*61
1507579379.23,48486,11.38,73174.8,-10.63,-11.89,-11.89,0,*62
1507579380.53,48487,11.38,73172.5,-10.63,-11.93,-11.93,0,*63
1507579381.79,48488,11.38,73174.3,-10.63,-12.03,-11.93,0,*66
1507579383.07,48489,11.38,73176.3,-10.63,-11.93,-12.03,0,*67
1507579384.3,48490,11.38,73172.5,-10.63,-12.03,-12.03,0,*65
1507579385.57,48491,11.38,73174.8,-10.63,-11.93,-12.03,0,*6E
1507579386.81,48492,11.38,73174.3,-10.63,-12.03,-12.03,0,*67
1507579388.05,48493,11.38,73170.3,-10.63,-12.03,-12.03,0,*66
1507579389.29,48494,11.38,73168.0,-10.63,-12.03,-12.03,0,*61
1507579390.55,48495,11.38,73164.8,-10.63,-12.03,-11.93,0,*6A
1507579391.82,48496,11.38,73160.5,-10.63,-12.03,-11.93,0,*69
1507579393.11,48497,11.38,73162.8,-10.59,-11.97,-11.97,0,*6B
1507579394.4,48498,11.38,73160.0,-10.59,-11.97,-11.89,0,*6B
1507579395.69,48499,11.38,73150.3,-10.59,-11.97,-11.97,0,*65
1507579396.91,48500,11.38,73150.8,-10.65,-12.03,-12.03,0,*6B
1507579398.18,48501,11.38,73148.8,-10.63,-11.93,-12.03,0,*66
1507579399.41,48502,11.38,73156.0,-10.63,-12.03,-12.03,0,*6F
1507579400.68,48503,11.38,73156.8,-10.63,-12.03,-11.93,0,*64
1507579401.97,48504,11.38,73160.8,-10.63,-11.81,-11.89,0,*61
1507579403.23,48505,11.38,73162.8,-10.65,-11.77,-11.81,0,*67
1507579404.52,48506,11.38,73162.3,-10.63,-11.89,-11.89,0,*6B
1507579405.79,48507,11.38,73160.5,-10.65,-11.93,-11.93,0,*6C
1507579407.04,48508,11.38,73160.5,-10.65,-11.93,-12.03,0,*69
1507579408.34,48509,11.38,73156.5,-10.63,-11.93,-11.93,0,*64
1507579409.64,48510,11.38,73164.0,-10.63,-11.93,-11.93,0,*6C
1507579410.93,48511,11.38,73166.8,-10.63,-11.93,-11.93,0,*6D
1507579412.18,48512,11.38,73166.5,-10.65,-12.03,-11.93,0,*62
1507579413.47,48513,11.38,73168.0,-10.63,-11.93,-11.93,0,*6F
1507579414.69,48514,11.38,73172.0,-10.65,-12.03,-12.03,0,*6E
1507579415.93,48515,11.38,73164.0,-10.63,-12.03,-12.03,0,*69
1507579417.22,48516,11.38,73162.5,-10.59,-11.89,-11.89,0,*63
1507579418.48,48517,11.38,73162.5,-10.63,-12.03,-11.89,0,*6A
1507579419.78,48518,11.38,73160.3,-10.63,-11.93,-11.93,0,*64
1507579421.02,48519,11.38,73158.3,-10.63,-12.03,-12.03,0,*65
1507579422.26,48520,11.38,73154.8,-10.63,-12.03,-12.03,0,*6F
1507579423.55,48521,11.38,73166.8,-10.63,-11.81,-11.93,0,*6D
1507579424.84,48522,11.38,73168.8,-10.63,-11.93,-11.89,0,*66
1507579426.08,48523,11.38,73166.0,-10.63,-12.03,-12.03,0,*6C
1507579427.38,48524,11.38,73160.8,-10.63,-11.93,-11.93,0,*6B
1507579428.67,48525,11.38,73162.3,-10.63,-11.93,-11.93,0,*6A
1507579429.97,48526,11.38,73166.3,-10.63,-11.93,-11.93,0,*69
1507579431.25,48527,11.38,73172.3,-10.65,-11.93,-11.93,0,*6E
1507579432.53,48528,11.38,73166.3,-10.63,-11.89,-11.81,0,*6F
1507579433.83,48529,11.38,73158.5,-10.63,-11.93,-11.93,0,*66
1507579435.13,48530,11.38,73162.5,-10.63,-11.93,-11.93,0,*6E
1507579436.43,48531,11.38,73164.5,-10.63,-11.93,-11.93,0,*6F
1507579437.72,48532,11.38,73166.0,-10.63,-11.93,-11.93,0,*6C
1507579438.97,48533,11.38,73164.3,-10.65,-11.93,-12.03,0,*61
1507579440.21,48534,11.38,73170.3,-10.65,-12.03,-12.07,0,*68
1507579441.45,48535,11.38,73166.0,-10.63,-12.03,-12.03,0,*6B
1507579442.69,48536,11.38,73162.5,-10.65,-12.03,-11.93,0,*64
1507579443.94,48537,11.38,73168.8,-10.65,-11.93,-12.03,0,*65
1507579445.21,48538,11.38,73172.3,-10.65,-11.93,-11.93,0,*60
1507579446.43,48539,11.38,73170.8,-10.65,-12.03,-12.03,0,*61
1507579447.64,48540,11.38,73172.5,-10.65,-12.03,-12.03,0,*6F
1507579448.88,48541,11.38,73174.3,-10.63,-12.03,-12.03,0,*68
1507579450.15,48542,11.38,73172.5,-10.63,-12.03,-11.93,0,*61
1507579451.38,48543,11.38,73168.8,-10.63,-12.03,-12.03,0,*6A
1507579452.65,48544,11.38,73170.0,-10.63,-11.93,-12.03,0,*67
1507579453.92,48545,11.38,73168.3,-10.63,-12.03,-11.93,0,*66
1507579455.19,48546,11.38,73170.3,-10.63,-11.93,-12.03,0,*65
1507579456.45,48547,11.38,73164.0,-10.63,-12.03,-11.93,0,*64
1507579457.67,48548,11.38,73168.0,-10.65,-12.03,-12.03,0,*67
1507579458.88,48549,11.38,73166.3,-10.65,-12.03,-12.03,0,*66
1507579460.12,48550,11.38,73170.3,-10.63,-12.03,-12.03,0,*68
1507579461.37,48551,11.38,73170.8,-10.65,-11.93,-12.03,0,*65
1507579462.63,48552,11.38,73166.8,-10.63,-12.03,-11.93,0,*60
1507579463.85,48553,11.38,73164.5,-10.65,-12.03,-12.03,0,*6D
1507579465.09,48554,11.38,73166.8,-10.65,-12.07,-12.03,0,*6E
1507579466.39,48555,11.38,73164.8,-10.63,-11.93,-11.93,0,*6D
1507579467.66,48556,11.38,73168.5,-10.65,-11.93,-11.93,0,*68
1507579468.93,48557,11.38,73164.5,-10.63,-12.03,-11.93,0,*65
1507579470.17,48558,11.38,73158.0,-10.65,-11.89,-12.03,0,*67
1507579471.41,48559,11.38,73160.3,-10.65,-12.03,-11.93,0,*6D
1507579472.7,48560,11.38,73162.3,-10.63,-11.89,-11.93,0,*60
1507579473.98,48561,11.38,73164.3,-10.65,-11.93,-11.93,0,*6C
1507579475.28,48562,11.38,73164.8,-10.63,-11.93,-11.93,0,*69
1507579476.55,48563,11.38,73164.0,-10.63,-11.93,-12.03,0,*62
1507579477.84,48564,11.38,73162.3,-10.63,-11.93,-11.93,0,*6F
1507579479.12,48565,11.31,73162.0,-10.65,-11.93,-11.93,0,*68
1507579480.38,48566,11.38,73166.3,-10.63,-12.03,-11.93,0,*67
1507579481.65,48567,11.38,73166.5,-10.63,-11.93,-12.03,0,*66
1507579482.9,48568,11.38,73164.8,-10.65,-12.03,-11.93,0,*6F
1507579484.17,48569,11.38,73166.3,-10.65,-11.93,-11.93,0,*64
1507579485.41,48570,11.38,73164.5,-10.65,-12.03,-11.93,0,*66
1507579486.65,48571,11.38,73162.3,-10.65,-12.03,-11.93,0,*67
1507579487.93,48572,11.38,73158.8,-10.63,-11.93,-12.03,0,*62
1507579489.17,48573,11.38,73162.8,-10.65,-12.03,-11.93,0,*65
1507579490.41,48574,11.38,73162.8,-10.65,-12.03,-11.93,0,*62
1507579491.65,48575,11.38,73140.3,-10.65,-12.03,-11.93,0,*63
1507579492.95,48576,11.38,73156.0,-10.63,-11.93,-11.93,0,*6C
1507579494.22,48577,11.38,73152.5,-10.65,-11.93,-11.93,0,*6B
1507579495.47,48578,11.38,73148.3,-10.65,-11.93,-12.03,0,*6E
1507579496.71,48579,11.38,73146.5,-10.65,-12.03,-11.93,0,*6F
1507579497.98,48580,11.38,73144.8,-10.65,-11.89,-11.89,0,*63
1507579499.24,48581,11.38,73144.0,-10.65,-11.81,-11.81,0,*62
1507579500.53,48582,11.38,73148.0,-10.63,-11.81,-11.89,0,*6F
1507579501.81,48583,11.31,73152.3,-10.63,-11.81,-11.89,0,*6E
1507579503.08,48584,11.38,73162.8,-10.65,-11.89,-11.89,0,*67
1507579504.34,48585,11.38,73166.8,-10.65,-11.81,-11.81,0,*66
1507579505.61,48586,11.38,73164.8,-10.65,-11.89,-11.89,0,*65
1507579506.88,48587,11.38,73164.3,-10.65,-11.93,-11.89,0,*6F
1507579508.17,48588,11.31,73166.8,-10.63,-11.89,-11.93,0,*66
1507579509.45,48589,11.38,73166.0,-10.65,-11.93,-11.89,0,*61
1507579510.74,48590,11.38,73164.0,-10.63,-11.93,-11.93,0,*64
1507579512.02,48591,11.38,73160.8,-10.65,-11.93,-11.93,0,*63
1507579513.31,48592,11.38,73162.3,-10.63,-11.93,-11.81,0,*65
1507579514.6,48593,11.38,73160.5,-10.63,-11.89,-11.89,0,*67
1507579515.86,48594,11.38,73166.0,-10.65,-11.81,-11.81,0,*66
1507579517.11,48595,11.38,73164.5,-10.65,-11.81,-11.81,0,*67
1507579518.38,48596,11.38,73164.3,-10.65,-11.89,-11.81,0,*6C
1507579519.63,48597,11.31,73160.3,-10.65,-11.81,-11.81,0,*65
1507579520.9,48598,11.38,73162.8,-10.65,-11.81,-11.89,0,*62
1507579522.18,48599,11.38,73162.3,-10.63,-11.77,-11.77,0,*6D
1507579523.45,48600,11.38,73160.3,-10.65,-11.77,-11.89,0,*69
1507579524.73,48601,11.38,73164.5,-10.63,-11.81,-11.81,0,*6F
1507579526.01,48602,11.38,73166.8,-10.63,-11.81,-11.81,0,*6C
1507579527.29,48603,11.38,73164.0,-10.63,-11.77,-11.81,0,*64
1507579528.55,48604,11.38,73170.5,-10.65,-11.81,-11.67,0,*64
1507579529.84,48605,11.38,73166.0,-10.63,-11.77,-11.77,0,*6B
1507579531.13,48606,11.38,73166.8,-10.63,-11.81,-11.89,0,*60
1507579532.38,48607,11.38,73166.3,-10.65,-11.81,-11.81,0,*6F
1507579533.66,48608,11.38,73164.5,-10.63,-11.81,-11.81,0,*66
1507579534.93,48609,11.38,73164.8,-10.65,-11.89,-11.89,0,*61
1507579536.22,48610,11.38,73164.0,-10.63,-11.81,-11.89,0,*67
1507579537.5,48611,11.38,73166.3,-10.63,-11.81,-11.81,0,*6E
1507579538.78,48612,11.38,73166.0,-10.63,-11.81,-11.81,0,*6D
1507579540.07,48613,11.38,73168.8,-10.63,-11.89,-11.89,0,*6C
1507579541.36,48614,11.38,73170.0,-10.63,-11.89,-11.93,0,*60
1507579542.65,48615,11.38,73170.8,-10.63,-11.89,-11.81,0,*62
1507579543.93,48616,11.38,73174.0,-10.63,-11.89,-11.81,0,*61
1507579545.21,48617,11.38,73174.8,-10.63,-11.89,-11.81,0,*60
1507579546.48,48618,11.38,73172.8,-10.65,-11.81,-11.89,0,*69
1507579547.77,48619,11.38,73174.0,-10.63,-11.81,-11.89,0,*6E
1507579549.05,48620,11.38,73168.3,-10.63,-11.81,-11.89,0,*64
1507579550.33,48621,11.38,73160.5,-10.63,-11.81,-11.81,0,*6D
1507579551.62,48622,11.38,73164.5,-10.63,-11.77,-11.77,0,*6E
1507579552.91,48623,11.38,73160.8,-10.63,-11.77,-11.67,0,*6E
1507579554.16,48624,11.38,73162.0,-10.65,-11.81,-11.77,0,*67
1507579555.45,48625,11.38,73164.3,-10.63,-11.77,-11.77,0,*69
1507579556.74,48626,11.38,73170.8,-10.63,-11.67,-11.67,0,*6A
1507579558.04,48627,11.38,73170.8,-10.63,-11.67,-11.63,0,*6F
1507579559.33,48628,11.38,73164.5,-10.63,-11.67,-11.67,0,*64
1507579560.63,48629,11.38,73164.3,-10.59,-11.59,-11.63,0,*65
1507579561.92,48630,11.38,73160.5,-10.59,-11.59,-11.59,0,*64
1507579563.22,48631,11.38,73160.3,-10.59,-11.63,-11.63,0,*65
1507579564.51,48632,11.38,73164.0,-10.63,-11.77,-11.67,0,*6E
1507579565.77,48633,11.38,73160.3,-10.65,-11.63,-11.55,0,*6D
1507579567.07,48634,11.38,73158.3,-10.63,-11.67,-11.67,0,*69
1507579568.35,48635,11.38,73158.3,-10.59,-11.73,-11.73,0,*61
1507579569.65,48636,11.38,73160.5,-10.59,-11.63,-11.73,0,*63
1507579570.93,48637,11.38,73162.8,-10.59,-11.73,-11.77,0,*67
1507579572.22,48638,11.38,73166.3,-10.59,-11.63,-11.73,0,*6D
1507579573.51,48639,11.31,73160.0,-10.59,-11.73,-11.73,0,*6D
1507579574.8,48640,11.31,73156.0,-10.59,-11.63,-11.73,0,*62
1507579576.09,48641,11.38,73160.5,-10.63,-11.67,-11.67,0,*6B
1507579577.38,48642,11.31,73162.0,-10.63,-11.77,-11.67,0,*69
1507579578.68,48643,11.38,73160.8,-10.63,-11.63,-11.67,0,*6D
1507579579.97,48644,11.38,73158.5,-10.63,-11.67,-11.67,0,*6E
1507579581.25,48645,11.31,73152.3,-10.63,-11.77,-11.77,0,*6F
1507579582.54,48646,11.38,73158.0,-10.63,-11.67,-11.81,0,*64
1507579583.82,48647,11.38,73154.0,-10.63,-11.67,-11.81,0,*65
1507579585.1,48648,11.38,73152.8,-10.63,-11.81,-11.77,0,*6B
1507579586.39,48649,11.31,73154.0,-10.63,-11.77,-11.77,0,*63
1507579587.67,48650,11.38,73160.5,-10.63,-11.77,-11.77,0,*6B
1507579588.96,48651,11.31,73158.0,-10.63,-11.67,-11.77,0,*6B
1507579590.24,48652,11.31,73154.8,-10.63,-11.81,-11.81,0,*69
1507579591.5,48653,11.38,73154.0,-10.65,-11.89,-11.81,0,*66
1507579592.78,48654,11.38,73152.8,-10.63,-11.81,-11.81,0,*6F
1507579594.04,48655,11.38,73152.0,-10.65,-11.77,-11.81,0,*61
1507579595.32,48656,11.38,73152.0,-10.63,-11.77,-11.81,0,*64
1507579596.61,48657,11.38,73156.0,-10.63,-11.67,-11.77,0,*6D
1507579597.9,48658,11.38,73152.8,-10.63,-11.67,-11.77,0,*62
1507579599.18,48659,11.38,73152.3,-10.63,-11.77,-11.81,0,*6B
1507579600.47,48660,11.38,73154.5,-10.63,-11.67,-11.67,0,*68
1507579601.76,48661,11.38,73158.0,-10.59,-11.73,-11.73,0,*60
1507579603.04,48662,11.38,73158.8,-10.63,-11.81,-11.77,0,*63
1507579604.32,48663,11.31,73154.0,-10.63,-11.81,-11.81,0,*6B
1507579605.58,48664,11.38,73156.5,-10.65,-11.81,-11.81,0,*6A
1507579606.86,48665,11.31,73156.8,-10.63,-11.67,-11.77,0,*6C
1507579608.12,48666,11.38,73158.5,-10.65,-11.77,-11.77,0,*68
1507579609.41,48667,11.38,73150.8,-10.59,-11.73,-11.73,0,*66
1507579610.7,48668,11.38,73136.3,-10.59,-11.73,-11.63,0,*68
1507579611.99,48669,11.38,73138.0,-10.63,-11.67,-11.77,0,*60
1507579613.28,48670,11.31,73138.3,-10.63,-11.77,-11.77,0,*69
1507579614.55,48671,11.38,73154.3,-10.63,-11.81,-11.81,0,*68
1507579615.84,48672,11.38,73154.8,-10.63,-11.77,-11.81,0,*62
1507579617.12,48673,11.38,73150.5,-10.63,-11.81,-11.81,0,*6A
1507579618.4,48674,11.31,73144.3,-10.63,-11.81,-11.81,0,*6D
1507579619.68,48675,11.38,73152.5,-10.63,-11.89,-11.81,0,*64
1507579620.97,48676,11.31,73144.3,-10.63,-11.77,-11.81,0,*66
1507579622.25,48677,11.38,73154.0,-10.63,-11.77,-11.81,0,*67
1507579623.54,48678,11.38,73148.8,-10.63,-11.77,-11.67,0,*60
1507579624.83,48679,11.38,73150.8,-10.63,-11.67,-11.67,0,*60
1507579626.1,48680,11.38,73150.0,-10.65,-11.63,-11.67,0,*64
1507579627.39,48681,11.38,73152.5,-10.63,-11.63,-11.67,0,*63
1507579628.68,48682,11.38,73156.0,-10.63,-11.63,-11.67,0,*60
1507579629.98,48683,11.38,73158.8,-10.63,-11.63,-11.67,0,*61
1507579631.27,48684,11.38,73154.5,-10.63,-11.67,-11.67,0,*62
1507579632.55,48685,11.31,73146.5,-10.63,-11.63,-11.77,0,*66
1507579633.84,48686,11.38,73146.8,-10.63,-11.77,-11.77,0,*60
1507579635.13,48687,11.38,73144.5,-10.63,-11.67,-11.77,0,*60
1507579636.41,48688,11.38,73146.8,-10.63,-11.77,-11.81,0,*67
1507579637.7,48689,11.38,73148.8,-10.63,-11.81,-11.89,0,*67
1507579638.98,48690,11.38,73144.8,-10.63,-11.81,-11.81,0,*67
1507579640.26,48691,11.38,73148.8,-10.63,-11.81,-11.81,0,*66
1507579641.52,48692,11.38,73156.0,-10.65,-11.77,-11.81,0,*6A
1507579642.8,48693,11.38,73152.5,-10.63,-11.81,-11.77,0,*6D
1507579644.08,48694,11.38,73152.5,-10.63,-11.81,-11.89,0,*6B
1507579645.37,48695,11.38,73146.3,-10.63,-11.81,-11.89,0,*6A
1507579646.66,48696,11.38,73150.0,-10.63,-11.89,-11.89,0,*61
1507579647.95,48697,11.38,73146.5,-10.63,-11.81,-11.89,0,*68
1507579649.21,48698,11.31,73146.3,-10.65,-11.89,-11.81,0,*61
1507579650.49,48699,11.38,73146.0,-10.63,-11.81,-11.81,0,*6E
1507579651.78,48700,11.38,73144.0,-10.63,-11.77,-11.89,0,*6E
1507579653.07,48701,11.38,73150.5,-10.63,-11.77,-11.77,0,*6E
1507579654.35,48702,11.38,73148.3,-10.63,-11.67,-11.77,0,*6C
1507579655.64,48703,11.38,73146.3,-10.63,-11.77,-11.81,0,*65
1507579656.92,48704,11.38,73154.3,-10.63,-11.77,-11.81,0,*62
1507579658.21,48705,11.38,73144.5,-10.63,-11.77,-11.89,0,*6B
1507579659.49,48706,11.38,73148.5,-10.63,-11.81,-11.81,0,*69
1507579660.78,48707,11.38,73150.3,-10.63,-11.81,-11.89,0,*60
1507579662.06,48708,11.38,73154.8,-10.63,-11.81,-11.81,0,*67
1507579663.32,48709,11.38,73158.3,-10.65,-11.81,-11.67,0,*68
1507579664.59,48710,11.38,73158.0,-10.65,-11.63,-11.67,0,*6C
1507579665.88,48711,11.31,73148.3,-10.63,-11.67,-11.63,0,*6B
1507579667.17,48712,11.38,73150.8,-10.63,-11.77,-11.77,0,*6C
1507579668.45,48713,11.38,73146.0,-10.63,-11.77,-11.77,0,*6D
1507579669.74,48714,11.38,73154.8,-10.63,-11.67,-11.77,0,*6B
1507579671.03,48715,11.38,73148.8,-10.63,-11.67,-11.67,0,*6B
1507579672.32,48716,11.38,73156.8,-10.63,-11.77,-11.67,0,*69
1507579673.6,48717,11.38,73150.8,-10.63,-11.77,-11.77,0,*69
1507579674.9,48718,11.38,73146.8,-10.63,-11.67,-11.67,0,*66
1507579676.19,48719,11.38,73136.0,-10.63,-11.63,-11.67,0,*63
1507579677.48,48720,11.38,73124.0,-10.59,-11.73,-11.63,0,*65
1507579678.77,48721,11.38,73128.0,-10.63,-11.77,-11.77,0,*6C
1507579680.05,48722,11.38,73134.3,-10.63,-11.77,-11.81,0,*66
1507579681.34,48723,11.38,73132.8,-10.59,-11.85,-11.77,0,*6A
1507579682.62,48724,11.38,73130.5,-10.63,-11.81,-11.89,0,*61
1507579683.92,48725,11.38,73134.5,-10.63,-11.89,-11.89,0,*68
1507579685.2,48726,11.38,73146.8,-10.63,-11.77,-11.81,0,*62
1507579686.48,48727,11.38,73136.0,-10.63,-11.77,-11.81,0,*63
1507579687.77,48728,11.38,73132.3,-10.63,-11.67,-11.77,0,*64
1507579689.06,48729,11.38,73126.3,-10.63,-11.55,-11.55,0,*64
1507579690.31,48730,11.38,73126.8,-10.59,-11.45,-11.45,0,*65
1507579691.6,48731,11.38,73138.3,-10.59,-11.73,-11.63,0,*65
1507579692.89,48732,11.38,73144.5,-10.59,-11.59,-11.59,0,*67
1507579694.18,48733,11.38,73144.5,-10.59,-11.51,-11.51,0,*66
1507579695.45,48734,11.38,73140.3,-10.57,-11.59,-11.55,0,*63
1507579696.74,48735,11.38,73148.8,-10.59,-11.73,-11.73,0,*60
1507579698.03,48736,11.38,73140.5,-10.59,-11.59,-11.59,0,*63
1507579699.32,48737,11.38,73138.8,-10.59,-11.73,-11.73,0,*62
1507579700.62,48738,11.38,73140.0,-10.59,-11.63,-11.63,0,*6D
1507579701.89,48739,11.38,73154.5,-10.57,-11.55,-11.55,0,*62
1507579703.18,48740,11.38,73146.0,-10.59,-11.73,-11.73,0,*62